{"data":{"norad_id":56382,"intl_designator":"2023-061J","name":"STARLINK-6160","alt_names":[],"object_type":"PAYLOAD","status":"ACTIVE","operator":null,"country":"US","launch_date":"2023-05-04","launch_site_code":"AFETR","launch_vehicle":null,"mission":null,"orbit_class":"UNKNOWN","rcs_meters":null,"size_class":null,"mass_kg":null,"dimensions":null,"purposes":["comms"],"wikipedia_slug":null,"has_3d_model":false,"image_url":null,"decayed_at":null,"tle_current":{"epoch":"2026-09-20T03:03:40.555008Z","epoch_age_seconds":144198,"freshness":"FRESH","line1":"1 56382U 23061J   26263.12755272  .00000027  00000+0  10492-4 0  9994","line2":"2 56382  43.0031 180.0501 0000875 247.4526 112.6233 15.27578657186480","mean_motion":15.27578657,"eccentricity":8.75e-5,"inclination_deg":43.0031,"raan_deg":180.0501,"arg_perigee_deg":247.4526,"mean_anomaly_deg":112.6233,"bstar":1.0492e-5,"rev_number":18648,"period_min":94.266831590067,"perigee_km":482.45276333246,"apogee_km":483.65347160302,"semimajor_km":6861.1901174677,"source":"CELESTRAK","updated_at":"2026-09-21T09:00:33.431575Z"}}}